Location: Baia Mare
(47.6567°N, 23.5850°E)
Time: 10:38:00
(UTC+03:00)

ISS - Pass Details

Date: 29 May 2018
Orbit: 402 x 406 km, 51.6° (Epoch: 22 June)

Event Time Altitude Azimuth Distance (km) Brightness Sun altitude
Rises 22:43:31 0° 286° (WNW) 2,323 1.0 -11.9°
Reaches altitude 10° 22:45:40 10° 294° (WNW) 1,462 0.0 -12.1°
Maximum altitude 22:48:48 41° 6° (N) 603 -2.6 -12.5°
Drops below altitude 10° 22:51:55 10° 79° (E) 1,458 -1.3 -12.8°
Enters shadow 22:52:43 - 83° (E) 1,769 -0.9 -12.9°
